Regional Weather Roundup
Issued by NWS Cleveland, OH

Home | Current Version | Previous Version | Text Only | Print | Product List | Glossary Off
Versions: 1 2 3 4 5 6 7 8 9 10 11 12 13 14 15 16 17 18 19 20 21 22 23 24 25 26 27 28 29 30 31 32 33 34 35 36 37 38 39 40 41 42 43 44 45 46 47 48 49 50

000
ASUS41 KCLE 010000
RWRCLE
OHIO REGIONAL WEATHER ROUNDUP
NATIONAL WEATHER SERVICE WILMINGTON, OH
800 PM EDT TUE SEP 30 2014

NOTE: "FAIR" INDICATES FEW OR NO CLOUDS BELOW 12,000 FEET WITH NO
SIGNIFICANT WEATHER AND/OR OBSTRUCTIONS TO VISIBILITY.

OHZ001>008-015>018-024>027-034-035-043-044-010100-
   NORTHWEST OHIO

CITY           SKY/WX    TMP DP  RH WIND       PRES   REMARKS
DEFIANCE       CLOUDY    57  48  72 CALM      29.99S
FINDLAY        CLOUDY    58  49  72 N8G18     29.97S
TOLEDO EXPRESS CLOUDY    56  49  77 NE8       29.99R
TOLEDO METCALF CLOUDY    58  50  75 N7        29.99R
LIMA           CLOUDY    57  49  74 N5        29.98R
$$

OHZ009>014-019>023-028>033-038-089-010100-
   NORTHEAST OHIO

CITY           SKY/WX    TMP DP  RH WIND       PRES   REMARKS
CLE-HOPKINS    CLOUDY    59  53  80 N12       29.98S
CLE-LAKEFRONT  CLOUDY    60  53  77 N13       29.96S
CUY CO. ARPT   CLOUDY    59  55  88 N10       29.97R
LORAIN-ELYRIA  CLOUDY    60  53  77 N8        29.98R
ASHTABULA      PTCLDY    56  54  93 CALM      29.97R
AKRON-CANTON   MOCLDY    58  51  78 N8        29.95R
WOOSTER        NOT AVBL
MANSFIELD      CLOUDY    56  52  86 N7        29.97R
YOUNGSTOWN     CLOUDY    58  55  90 NW12      29.96R
$$

OHZ042-051>053-060>062-070>072-077>081-010100-
  SOUTHWEST OHIO

CITY           SKY/WX    TMP DP  RH WIND       PRES   REMARKS
CINC-COVINGTON MOCLDY    66  57  72 N10       29.93R
CINC-LUNKEN    MOCLDY    64  57  78 NE8       29.94R
HAMILTON       CLEAR     60  54  80 NE3       29.96R
DAYTON         NOT AVBL
WRIGHT-PAT AFB CLEAR     56  49  75 N6        29.97R
DAYTON GENERAL PTCLDY    57  51  80 N9        29.95R
WILMINGTON     MOCLDY    59  53  80 N6        29.96R
$$

OHZ036-037-039>041-045>050-054>059-063>069-073>076-082>088-010100-
  CENTRAL AND SOUTHEAST OHIO

CITY           SKY/WX    TMP DP  RH WIND       PRES   REMARKS
COLUMBUS       CLEAR     55  49  80 NW6       29.95R
OSU AIRPORT    CLEAR     54  48  80 NW7       29.96R
BOLTON FIELD   NOT AVBL
RICKENBACK AFB NOT AVBL
NEWARK         CLEAR     54  51  90 W3        29.94R
MARION         CLOUDY    57  51  80 N7        29.97R
LANCASTER      MOCLDY    57  53  86 N3        29.95R
ZANESVILLE     PTCLDY    59  56  89 CALM      29.93S
NEW PHILLY     MOCLDY    60  55  83 N6        29.95R
$$



USA.gov is the U.S. government's official web portal to all federal, state and local government web resources and services.